RH
33 34 35 37 38 36 36 37 39 39 38 37 38 37 36 38 41 41 36 36 42 45 49 55 58 64 70 68 65 65 63 59 57 53 49 44 39 36 35 34 38 44 43 40 38 36 35 37 39 41 40 38 38 35 36 39 42 50 64 74 82 88 91 92 93 94 95 93 93 94 93 93 95 97
33 35 36 37 38 36 37 39 41 41 40 38 38 35 33 37 42 45 42 38 41 45 48 53 60 64 69 70 67 66 64 60 59 56 51 48 44 40 37 36 38 43 45 41 38 36 34 34 37 40 40 38 38 36 35 39 40 41 54 70 78 85 89 89 87 90 95 95 95 95 94 94 94 94
36 37 36 36 37 37 39 41 42 42 41 38 35 31 32 36 38 40 45 42 40 47 49 52 63 68 66 69 71 70 68 64 61 58 54 50 48 44 39 36 37 41 44 41 37 36 32 30 33 38 40 39 38 37 35 38 40 37 44 62 74 81 88 88 86 88 91 92 94 96 94 94 95 94
39 39 36 35 37 38 39 41 42 43 42 37 32 28 28 34 34 34 44 48 42 46 55 57 63 67 66 70 73 69 67 67 63 59 56 52 49 46 41 37 35 38 41 39 34 31 28 25 26 32 37 38 37 38 36 36 40 41 40 51 67 76 84 87 88 90 92 90 91 94 95 94 94 95
38 36 34 35 38 39 39 41 43 44 42 35 28 25 26 30 31 32 42 51 46 46 59 66 66 68 71 74 76 71 66 66 64 59 58 57 52 47 42 37 33 33 37 38 33 30 28 25 24 28 34 38 37 37 37 34 37 41 42 48 60 71 79 84 87 91 95 94 92 93 94 94 94 94
37 34 34 38 39 40 41 43 45 45 40 31 23 23 26 26 29 32 38 50 52 51 61 70 69 73 78 79 79 78 73 69 66 62 58 57 54 49 44 39 35 34 37 40 39 35 34 31 29 31 35 37 37 37 37 36 35 36 38 42 52 64 73 80 85 90 94 97 97 95 93 93 93 93
39 38 40 41 38 40 43 44 46 45 37 26 20 21 25 26 27 31 36 49 58 58 63 70 72 74 78 79 82 85 82 75 70 65 60 56 53 51 48 44 38 37 39 43 42 39 37 35 32 34 36 37 37 37 37 36 35 34 31 32 42 55 65 73 81 87 92 95 98 98 95 93 94 93
42 44 48 45 39 41 46 46 47 45 32 21 20 22 24 26 27 32 40 53 62 62 63 68 74 76 75 78 84 85 82 78 74 69 64 60 55 52 50 47 41 38 40 43 43 40 38 35 31 30 32 35 36 37 36 36 36 33 28 27 33 45 57 67 76 84 89 93 96 99 98 95 94 93
45 49 51 47 43 45 48 48 47 41 29 20 20 22 24 25 28 36 47 56 64 67 65 66 73 80 80 82 87 88 84 80 76 73 69 65 60 54 49 48 44 41 42 44 45 42 38 34 30 27 29 32 34 35 35 36 33 27 22 21 26 36 50 62 72 79 86 91 94 98 99 96 94 92
48 51 50 49 50 49 49 49 46 38 27 21 22 24 26 27 31 41 51 58 64 69 69 69 73 80 82 82 88 92 90 84 78 74 71 68 65 60 53 50 48 44 42 42 44 41 35 31 28 25 25 27 31 34 35 36 33 23 16 17 20 28 41 55 67 75 81 88 93 96 98 96 93 92
50 50 52 54 53 50 49 49 44 34 27 25 28 30 30 31 38 48 54 59 65 67 69 72 74 76 80 83 88 93 93 89 83 76 70 68 68 65 58 53 49 45 41 39 39 38 34 30 27 24 22 21 23 26 27 31 33 24 15 15 18 23 33 48 61 70 77 85 92 95 96 95 92 91
51 52 57 57 53 51 51 48 42 35 32 32 33 34 34 35 42 51 55 58 63 64 67 71 75 78 82 84 89 94 93 90 89 85 77 71 70 67 62 56 51 47 44 40 38 38 35 31 27 25 22 19 19 19 18 20 23 21 15 14 16 19 26 39 54 65 73 82 90 94 95 95 93 91
52 56 60 57 53 52 51 47 42 37 35 34 33 32 32 34 43 50 54 58 61 64 68 72 76 84 87 85 88 94 94 91 92 94 90 84 78 71 65 61 55 51 48 43 37 36 37 33 29 26 23 20 19 19 17 16 16 15 14 14 15 16 21 32 46 59 70 79 85 91 95 96 94 92
56 59 60 57 53 52 51 47 40 31 27 27 26 26 27 33 45 51 52 56 60 65 72 73 74 83 88 87 90 95 96 93 92 94 96 94 87 76 68 65 60 54 50 46 39 36 37 36 30 26 24 21 19 19 17 16 15 15 14 14 15 15 18 26 38 52 65 75 82 88 93 95 95 93
59 60 60 57 53 51 50 43 34 26 23 21 20 20 22 29 43 51 52 56 62 67 71 70 71 81 87 86 90 95 96 96 95 95 95 95 92 85 74 67 64 60 54 49 42 35 35 36 32 26 24 22 20 19 17 16 15 16 15 14 14 15 16 22 32 45 58 70 79 85 89 93 96 94
59 60 60 56 51 50 47 39 30 25 22 20 18 19 21 25 35 43 47 52 59 63 63 63 70 83 88 85 87 92 96 96 97 97 95 92 90 88 82 72 67 65 60 52 44 36 32 34 32 26 23 22 20 18 18 17 16 15 15 14 14 14 15 19 27 38 51 64 75 81 85 90 95 95
59 60 59 52 46 46 43 35 29 24 22 21 18 18 20 23 28 34 37 43 51 53 54 59 69 82 89 86 84 90 97 97 96 96 95 93 88 86 86 82 75 71 66 56 48 41 35 35 35 28 23 22 21 19 18 17 16 16 16 15 13 13 14 16 24 34 43 56 70 78 82 89 93 95
63 59 55 46 41 42 39 33 29 25 22 21 19 20 23 25 27 30 32 38 44 47 50 59 68 79 86 85 82 89 96 94 91 90 90 89 86 80 79 81 78 76 73 64 53 45 40 37 36 29 23 23 22 19 18 17 17 21 22 18 13 13 13 14 22 31 37 48 63 74 79 87 92 94
60 54 47 39 39 39 36 33 29 25 22 22 25 29 29 26 27 29 31 34 40 46 54 62 67 73 78 79 82 88 91 90 88 87 84 83 80 74 70 69 67 66 70 68 56 46 43 40 34 28 24 24 22 20 18 17 17 23 27 22 13 12 13 13 19 29 34 40 55 68 74 82 90 92
51 47 41 37 40 39 35 33 29 25 25 29 34 33 26 22 27 29 29 32 38 46 55 58 60 67 72 76 85 92 91 91 92 91 88 82 77 72 68 66 62 57 60 64 57 47 44 41 33 28 26 24 23 20 18 17 18 24 29 25 15 11 12 13 17 26 32 36 48 63 70 76 86 91
46 44 39 38 41 39 35 33 28 25 29 35 36 30 20 20 26 29 28 31 37 45 51 51 53 64 71 76 89 96 93 93 97 94 87 79 76 76 73 66 61 56 54 60 58 49 45 40 34 31 28 25 24 21 17 17 21 28 31 26 18 13 11 12 16 24 29 34 43 56 65 72 81 88
45 40 38 41 42 38 35 33 28 26 33 37 34 26 18 18 25 30 30 32 36 43 48 49 52 62 68 74 89 99 94 95 99 92 82 77 77 80 75 65 60 56 53 57 59 52 47 42 35 33 31 29 25 19 17 20 25 30 32 27 23 19 13 11 16 22 28 32 38 49 60 67 77 85
43 39 40 43 42 38 36 33 28 29 35 37 33 25 18 18 27 34 33 34 39 44 47 50 53 61 66 71 88 100 98 97 98 91 83 82 81 79 71 63 60 58 54 56 58 54 48 42 36 34 34 33 26 19 21 27 29 30 30 27 24 23 19 15 16 21 27 30 34 44 56 66 75 82
40 39 42 44 41 38 36 32 30 32 37 36 29 22 20 24 33 37 35 35 40 43 46 50 54 59 63 67 84 99 100 98 98 92 85 86 87 84 75 66 62 59 53 53 54 51 45 41 37 34 33 34 32 27 27 29 27 28 30 27 24 25 24 22 20 22 27 29 31 40 55 67 74 79
39 40 44 44 40 38 36 32 31 32 33 30 24 23 27 31 33 33 32 34 37 39 43 47 51 57 60 64 80 97 100 99 100 94 85 86 93 91 82 75 70 62 53 51 50 46 40 38 37 34 32 35 36 34 32 29 27 29 32 30 27 27 29 28 25 24 26 28 30 37 51 65 73 75
40 43 45 43 40 38 35 31 29 28 27 25 24 26 29 28 25 25 26 30 33 36 40 44 48 53 57 62 76 92 100 100 100 94 85 87 97 97 87 82 77 68 61 58 55 51 45 38 33 32 32 34 37 37 35 32 31 32 32 31 31 30 31 31 30 29 28 29 32 36 44 58 68 72
43 45 45 42 39 37 34 32 30 27 26 24 24 25 24 20 18 19 22 26 30 32 35 39 44 50 55 60 71 86 97 99 98 92 84 86 98 100 92 87 82 77 74 69 62 58 54 44 38 37 36 36 41 47 43 35 33 35 33 31 32 30 29 30 31 31 30 31 33 36 40 50 61 68
46 46 44 42 38 36 35 34 31 27 25 22 21 20 18 16 16 16 19 23 26 28 30 33 38 46 52 57 66 79 92 98 97 92 84 84 95 101 98 94 91 84 76 67 62 62 62 56 51 50 46 44 50 54 45 32 30 34 33 32 32 32 30 30 30 30 30 31 33 36 39 44 53 62
47 45 43 41 38 36 36 34 29 25 22 19 17 16 16 16 16 16 18 21 24 26 27 29 34 42 48 53 61 72 86 95 98 96 89 85 90 98 99 98 97 90 79 71 72 75 71 66 64 59 53 53 57 57 46 35 32 32 30 30 31 30 29 29 29 28 29 31 33 34 36 38 44 54
46 44 43 41 39 36 35 31 27 24 20 18 17 17 16 16 17 17 17 20 23 26 27 27 31 38 44 49 55 65 78 91 97 98 96 92 90 94 97 97 97 95 87 81 84 84 73 66 69 68 61 58 62 61 52 44 40 38 36 34 32 29 28 28 28 27 28 30 32 33 34 36 39 46
45 44 44 42 38 34 32 30 27 24 22 20 20 19 17 17 18 18 17 18 21 24 27 27 29 35 41 45 50 57 69 84 94 96 97 96 93 91 93 95 97 98 93 87 85 83 76 69 71 74 70 64 62 61 56 51 47 45 45 43 37 34 32 30 30 29 29 30 32 32 33 36 38 42
46 45 44 41 36 33 32 31 28 25 24 22 22 21 20 19 19 19 19 19 19 22 25 27 28 32 37 41 45 50 59 73 87 94 96 96 96 94 92 93 97 100 99 94 86 81 80 78 76 76 76 73 68 61 58 59 57 53 52 51 44 38 36 33 32 32 32 32 34 34 35 36 36 39
46 45 44 40 35 32 32 32 29 27 26 24 24 24 23 22 21 21 22 21 20 20 23 27 29 31 35 38 41 46 51 61 75 88 93 94 95 95 94 94 96 99 100 98 93 88 86 86 87 82 77 77 79 73 64 64 65 61 59 57 50 41 37 35 33 34 34 34 34 34 35 35 36 38
46 45 43 39 34 33 33 32 31 29 27 26 26 25 25 24 24 23 24 23 22 21 22 25 29 31 34 36 39 42 46 52 62 75 86 91 92 93 94 93 93 97 99 99 98 96 93 93 96 90 79 76 84 84 75 69 67 64 62 59 53 46 42 40 37 36 35 33 33 33 34 35 36 38
46 44 43 39 35 34 34 34 33 31 30 29 28 27 27 27 25 24 24 25 25 24 23 24 27 31 33 35 38 40 42 45 51 61 74 84 88 90 91 90 89 92 97 99 99 98 96 94 94 91 86 83 83 81 76 71 68 65 64 61 55 50 47 46 46 43 40 38 37 37 37 37 38 40
46 44 42 39 36 35 35 36 36 34 33 32 30 28 28 28 27 25 25 25 25 26 25 24 25 29 32 35 37 39 40 42 45 52 62 75 82 86 87 88 87 87 90 95 99 99 97 95 93 91 92 94 87 77 69 66 64 64 64 61 59 56 52 50 50 49 46 46 44 40 38 38 40 43
45 43 42 40 37 36 37 38 38 37 36 34 32 31 30 30 29 27 25 25 25 25 26 26 25 26 30 34 38 40 40 41 43 46 52 61 73 81 84 85 85 84 84 90 96 98 97 97 96 91 90 93 91 82 72 65 60 60 61 60 59 59 57 56 55 52 50 49 46 42 41 40 42 46
45 43 43 41 38 37 39 40 41 40 38 36 35 33 32 31 31 30 28 26 25 24 25 27 27 27 28 31 36 40 42 42 42 44 46 51 60 71 79 82 83 83 82 84 88 92 93 93 91 87 84 86 88 85 80 71 63 59 58 58 57 58 59 60 59 58 56 52 46 42 41 43 45 49
45 43 43 43 40 39 40 42 43 42 41 39 37 36 34 33 33 32 30 28 26 25 25 25 27 28 27 29 32 37 42 44 43 42 44 47 51 58 67 74 79 82 83 82 82 85 87 88 87 85 85 86 87 85 83 79 71 64 61 59 57 58 60 60 59 59 59 56 51 46 45 46 48 51
45 43 44 43 41 40 42 44 45 44 43 41 39 37 36 35 34 34 33 31 28 27 26 24 25 26 27 28 30 33 38 43 45 44 43 44 46 49 54 62 70 76 80 83 83 83 85 88 89 88 87 87 87 85 85 83 79 73 69 65 62 60 61 61 60 59 58 57 56 55 54 53 53 54
45 44 45 44 43 42 43 44 46 46 45 43 41 39 38 37 36 35 35 33 31 30 28 26 25 24 25 26 28 30 33 39 44 46 45 44 44 45 47 52 59 66 73 78 81 83 83 85 89 90 87 84 83 83 83 84 82 78 74 71 69 67 65 63 62 60 59 58 58 58 58 58 58 57
46 43 45 45 44 43 43 45 47 48 47 45 43 41 40 38 37 37 37 36 34 32 30 29 28 26 24 24 25 27 29 33 38 43 46 46 45 44 45 46 50 56 62 69 75 80 81 82 84 86 84 82 80 80 80 83 84 82 78 75 72 71 69 67 64 62 60 59 59 58 58 58 58 58
47 44 45 46 45 44 44 46 48 49 49 47 45 43 42 40 39 39 39 38 37 34 33 31 30 29 27 25 24 25 26 28 32 37 42 45 46 46 45 45 46 49 52 56 61 67 72 77 80 82 81 80 79 78 77 78 80 82 83 80 76 73 72 70 68 65 62 60 59 58 58 57 58 58
48 45 45 46 46 45 44 46 48 50 51 49 47 45 44 42 41 40 40 40 39 38 36 35 33 31 31 29 27 26 25 25 27 30 35 39 44 46 46 46 46 46 47 48 50 53 58 65 72 77 80 80 79 77 75 74 75 77 81 82 80 77 75 74 73 70 66 63 61 61 59 58 59 59
49 45 45 47 47 45 44 45 48 51 52 51 49 47 46 44 43 42 41 42 42 41 39 38 37 35 33 32 31 29 28 26 25 26 28 32 37 41 44 46 46 46 46 46 47 47 49 53 59 66 72 77 79 78 77 75 74 74 76 78 81 81 79 78 78 76 74 70 68 66 65 63 61 60